Location: Peterborough
(44.3091°N, 78.3197°W)
Time: 04:56:48
(UTC-04:00)

Tiros 1 despin weight - Pass Details

Date: 24 March 2023
Orbit: 586 x 632 km, 48.2° (Epoch: 08 June)

Event Time Altitude Azimuth Distance (km) Brightness Sun altitude
Rises 23:19:11 0° 252° (WSW) 2,805 - -36.8°
Reaches altitude 10° 23:21:27 10° 254° (WSW) 1,910 - -37.0°
Maximum altitude 23:25:49 76° 340° (NNW) 613 - -37.5°
Drops below altitude 10° 23:30:16 10° 68° (ENE) 1,938 - -38.0°
Sets 23:32:35 0° 70° (ENE) 2,850 - -38.2°
